E1521 Weather Reports


time (UTC)temp
C
wind
direction
speed
KPH
gust
KPH
rain 1hr
cm
rain 24hr
cm
rain mn
cm
humidity
%
barometer
mb
20260509233015 38 301 9.7 17.7 0.00 0.00 0.00 10 1007.1
20260509232016 38 335 9.7 17.7 0.00 0.00 0.00 10 1007.2
20260509231018 38 275 6.4 14.5 0.00 0.00 0.00 10 1007.3
20260509230016 38 282 6.4 14.5 0.00 0.00 0.00 9 1007.5
20260509225015 38 315 6.4 14.5 0.00 0.00 0.00 10 1007.5
20260509224017 38 292 8.0 16.1 0.00 0.00 0.00 10 1007.7
20260509223015 38 293 8.0 16.1 0.00 0.00 0.00 10 1007.8
20260509222040 38 312 6.4 17.7 0.00 0.00 0.00 10 1008.0
20260509221016 37 301 8.0 16.1 0.00 0.00 0.00 10 1008.2
20260509220016 38 287 6.4 17.7 0.00 0.00 0.00 10 1008.3
20260509215016 37 301 4.8 16.1 0.00 0.00 0.00 11 1008.5
20260509214016 37 279 8.0 17.7 0.00 0.00 0.00 10 1008.6
20260509213016 37 275 4.8 16.1 0.00 0.00 0.00 10 1008.8
20260509212036 37 296 9.7 19.3 0.00 0.00 0.00 10 1009.0
20260509211016 37 303 9.7 19.3 0.00 0.00 0.00 10 1009.1
20260509210016 37 274 4.8 16.1 0.00 0.00 0.00 11 1009.2
20260509205015 37 284 6.4 17.7 0.00 0.00 0.00 11 1009.5
20260509204102 37 290 8.0 19.3 0.00 0.00 0.00 11 1009.6
20260509203016 36 300 9.7 20.9 0.00 0.00 0.00 11 1009.7
20260509202015 36 287 9.7 22.5 0.00 0.00 0.00 11 1009.8
20260509201037 37 287 4.8 14.5 0.00 0.00 0.00 11 1010.0
20260509200015 37 305 6.4 12.9 0.00 0.00 0.00 12 1010.1
20260509195016 37 8 0.0 4.8 0.00 0.00 0.00 13 1010.3
20260509194036 36 303 3.2 11.3 0.00 0.00 0.00 13 1010.5
20260509193016 36 301 4.8 11.3 0.00 0.00 0.00 14 1010.6
20260509192019 36 308 3.2 14.5 0.00 0.00 0.00 13 1010.8
20260509191015 36 294 1.6 6.4 0.00 0.00 0.00 14 1011.0
20260509190016 35 340 1.6 11.3 0.00 0.00 0.00 14 1011.1
20260509185016 36 8 1.6 11.3 0.00 0.00 0.00 14 1011.3
20260509184017 35 168 1.6 9.7 0.00 0.00 0.00 14 1011.4
20260509183015 35 290 1.6 8.0 0.00 0.00 0.00 14 1011.5
20260509182015 35 323 1.6 4.8 0.00 0.00 0.00 14 1011.6
20260509181016 35 183 1.6 8.0 0.00 0.00 0.00 14 1011.8
20260509180015 33 319 1.6 9.7 0.00 0.00 0.00 16 1011.9
20260509175015 34 265 1.6 4.8 0.00 0.00 0.00 15 1012.1
20260509174016 33 144 1.6 9.7 0.00 0.00 0.00 16 1012.1
20260509173055 33 138 1.6 8.0 0.00 0.00 0.00 16 1012.2
20260509172016 33 134 1.6 8.0 0.00 0.00 0.00 16 1012.3
20260509171015 32 133 1.6 8.0 0.00 0.00 0.00 17 1012.3
20260509170036 32 136 1.6 8.0 0.00 0.00 0.00 17 1012.2
20260509165017 32 141 0.0 4.8 0.00 0.00 0.00 17 1012.2
20260509164037 31 119 1.6 6.4 0.00 0.00 0.00 18 1012.2
20260509163016 31 142 3.2 9.7 0.00 0.00 0.00 18 1012.1
20260509162015 31 157 1.6 9.7 0.00 0.00 0.00 19 1012.1
20260509161016 30 143 3.2 8.0 0.00 0.00 0.00 19 1012.1
20260509160015 30 148 3.2 8.0 0.00 0.00 0.00 20 1012.1
20260509155035 29 140 3.2 9.7 0.00 0.00 0.00 21 1012.1
20260509154016 28 128 4.8 8.0 0.00 0.00 0.00 21 1012.1
20260509153015 28 144 3.2 8.0 0.00 0.00 0.00 23 1012.2
20260509152015 27 140 1.6 6.4 0.00 0.00 0.00 25 1012.1
20260509151015 27 128 3.2 8.0 0.00 0.00 0.00 25 1012.1
20260509150015 26 131 3.2 8.0 0.00 0.00 0.00 26 1012.1
20260509145015 25 134 3.2 9.7 0.00 0.00 0.00 27 1012.0
20260509144035 24 129 4.8 8.0 0.00 0.00 0.00 28 1012.0
20260509143016 23 128 4.8 9.7 0.00 0.00 0.00 30 1011.9
20260509142035 23 134 4.8 11.3 0.00 0.00 0.00 31 1011.9
20260509141015 22 132 3.2 8.0 0.00 0.00 0.00 31 1011.8
20260509140016 22 131 3.2 9.7 0.00 0.00 0.00 31 1011.8
20260509135016 21 128 4.8 9.7 0.00 0.00 0.00 31 1011.6
20260509134015 20 131 3.2 8.0 0.00 0.00 0.00 32 1011.5
20260509133021 20 132 3.2 9.7 0.00 0.00 0.00 32 1011.4
20260509132016 20 130 3.2 8.0 0.00 0.00 0.00 32 1011.3
20260509131016 20 131 4.8 11.3 0.00 0.00 0.00 33 1011.1
20260509130016 19 127 3.2 6.4 0.00 0.00 0.00 33 1011.0
20260509125038 18 128 1.6 8.0 0.00 0.00 0.00 33 1010.9
20260509124017 18 129 3.2 6.4 0.00 0.00 0.00 34 1010.7
20260509123016 18 130 1.6 9.7 0.00 0.00 0.00 34 1010.6
20260509122016 18 123 3.2 6.4 0.00 0.00 0.00 35 1010.4
20260509121017 18 131 1.6 6.4 0.00 0.00 0.00 34 1010.3
20260509120016 19 119 0.0 3.2 0.00 0.00 0.00 32 1010.2
20260509115018 20 89 0.0 4.8 0.00 0.00 0.00 31 1010.2
20260509114037 20 127 3.2 6.4 0.00 0.00 0.00 31 1010.2
20260509113017 20 134 1.6 3.2 0.00 0.00 0.00 31 1010.1
20260509112517 20 128 0.0 3.2 0.00 0.00 0.00 30 1010.1
20260509111518 20 122 0.0 3.2 0.00 0.00 0.00 30 1010.1
20260509110536 20 130 0.0 4.8 0.00 0.00 0.00 31 1010.1
20260509105517 20 134 0.0 4.8 0.00 0.00 0.00 30 1010.0
20260509104517 20 128 0.0 4.8 0.00 0.00 0.00 31 1010.1
20260509103518 21 133 1.6 4.8 0.00 0.00 0.00 30 1010.0
20260509102516 21 127 0.0 3.2 0.00 0.00 0.00 29 1010.1
20260509101516 21 134 0.0 4.8 0.00 0.00 0.00 29 1010.2
20260509100517 21 132 0.0 3.2 0.00 0.00 0.00 29 1010.2
20260509095517 21 136 1.6 4.8 0.00 0.00 0.00 30 1010.1
20260509094517 21 131 0.0 4.8 0.00 0.00 0.00 29 1010.1
20260509093516 21 127 0.0 4.8 0.00 0.00 0.00 28 1010.1
20260509092516 22 128 1.6 4.8 0.00 0.00 0.00 28 1010.1
20260509091516 22 84 0.0 3.2 0.00 0.00 0.00 27 1010.1
20260509090517 22 128 1.6 4.8 0.00 0.00 0.00 27 1010.1
20260509085516 22 115 1.6 4.8 0.00 0.00 0.00 26 1010.1
20260509084517 23 106 1.6 6.4 0.00 0.00 0.00 26 1010.0
20260509083517 23 71 0.0 6.4 0.00 0.00 0.00 25 1010.0
20260509082516 23 116 3.2 8.0 0.00 0.00 0.00 25 1010.0
20260509081516 24 90 1.6 6.4 0.00 0.00 0.00 25 1010.1
20260509080517 24 91 1.6 4.8 0.00 0.00 0.00 25 1010.0
20260509075536 25 86 1.6 6.4 0.00 0.00 0.00 23 1010.0
20260509074516 25 86 3.2 6.4 0.00 0.00 0.00 22 1010.0
20260509073516 26 120 3.2 6.4 0.00 0.00 0.00 22 1009.9
20260509072538 27 74 0.0 4.8 0.00 0.00 0.00 21 1009.9
20260509071516 28 68 0.0 4.8 0.00 0.00 0.00 20 1010.0
20260509070516 31 78 0.0 6.4 0.00 0.00 0.00 15 1010.1
20260509065557 31 291 1.6 12.9 0.00 0.00 0.00 14 1010.0
20260509064517 31 291 6.4 16.1 0.00 0.00 0.00 14 1009.9
20260509063518 31 276 1.6 16.1 0.00 0.00 0.00 15 1009.9
20260509062518 31 281 6.4 16.1 0.00 0.00 0.00 15 1009.9
20260509061517 31 274 6.4 12.9 0.00 0.00 0.00 15 1009.9
20260509060517 31 268 3.2 12.9 0.00 0.00 0.00 15 1009.8
20260509055517 32 275 6.4 14.5 0.00 0.00 0.00 15 1009.7
20260509054518 32 278 6.4 17.7 0.00 0.00 0.00 15 1009.7
20260509053516 32 269 6.4 14.5 0.00 0.00 0.00 15 1009.7
20260509052516 32 268 6.4 17.7 0.00 0.00 0.00 15 1009.8
20260509051517 32 269 6.4 16.1 0.00 0.00 0.00 15 1009.8
20260509050516 32 267 6.4 12.9 0.00 0.00 0.00 15 1009.7
20260509045516 32 270 9.7 22.5 0.00 0.00 0.00 15 1009.7
20260509044517 32 270 6.4 17.7 0.00 0.00 0.00 16 1009.6
20260509043517 32 269 4.8 14.5 0.00 0.00 0.00 16 1009.5
20260509042536 32 262 4.8 11.3 0.00 0.00 0.00 16 1009.4
20260509041516 32 266 4.8 12.9 0.00 0.00 0.00 16 1009.3
20260509040516 32 242 3.2 9.7 0.00 0.00 0.00 16 1009.1
20260509035537 31 252 1.6 9.7 0.00 0.00 0.00 16 1008.9
20260509034517 31 228 1.6 6.4 0.00 0.00 0.00 16 1008.8
20260509033518 30 0.0 0.0 0.00 0.00 0.00 17 1008.6
20260509032516 31 0.0 0.0 0.00 0.00 0.00 16 1008.6
20260509031515 31 0.0 0.0 0.00 0.00 0.00 16 1008.5
20260509030536 32 0.0 0.0 0.00 0.00 0.00 15 1008.4
20260509025517 33 0.0 4.8 0.00 0.00 0.00 14 1008.3
20260509024516 33 262 0.0 6.4 0.00 0.00 0.00 14 1008.2
20260509023515 33 272 1.6 8.0 0.00 0.00 0.00 13 1008.0
20260509022557 33 270 1.6 6.4 0.00 0.00 0.00 13 1008.0
20260509021515 34 282 1.6 9.7 0.00 0.00 0.00 13 1007.8
20260509020537 35 286 4.8 11.3 0.00 0.00 0.00 12 1007.8
20260509015516 35 294 4.8 11.3 0.00 0.00 0.00 12 1007.7
20260509014516 35 290 6.4 12.9 0.00 0.00 0.00 12 1007.7
20260509013516 36 290 8.0 16.1 0.00 0.00 0.00 12 1007.7
20260509012515 36 285 8.0 12.9 0.00 0.00 0.00 11 1007.7
20260509011517 36 278 6.4 14.5 0.00 0.00 0.00 11 1007.7
20260509010516 36 302 6.4 16.1 0.00 0.00 0.00 11 1007.7
20260509005516 36 274 8.0 24.1 0.00 0.00 0.00 12 1007.7
20260509004537 36 267 4.8 14.5 0.00 0.00 0.00 12 1007.9
20260509003516 36 276 8.0 19.3 0.00 0.00 0.00 12 1008.0
20260509002515 36 284 9.7 17.7 0.00 0.00 0.00 12 1008.0
20260509001521 36 274 8.0 20.9 0.00 0.00 0.00 12 1008.1
20260509000515 36 282 8.0 19.3 0.00 0.00 0.00 12 1008.1
20260508235516 36 292 9.7 20.9 0.00 0.00 0.00 12 1008.1
20260508234516 36 282 9.7 20.9 0.00 0.00 0.00 12 1008.1